This demonstration page uses our WeatherBlox Daily Observations layout. Learn more.

Left ArrowRight Arrow

53.62937, 11.41316

Hourly Observations for October 2, 2022

Temp ( °F °C ) Dew Point ( °F °C ) Humidity (%) Winds ( mph kmh ) Pressure ( in mb ) Visibility ( mi km ) Precip ( " mm )
12:20 am 00:20 Mostly Cloudy 52 11 50 10 94 94 W 9 15 29.74 1007 6 10 0.00 0.00
12:50 am 00:50 Mostly Clear 52 11 50 10 94 94 W 7 11 29.76 1008 6 10 0.00 0.00
1:20 am 01:20 Mostly Clear 52 11 50 10 94 94 W 7 11 29.76 1008 6 10 0.00 0.00
1:50 am 01:50 Mostly Cloudy 52 11 50 10 94 94 VRB 6 9 29.76 1008 6 10 0.00 0.00
2:20 am 02:20 Partly Cloudy 52 11 50 10 94 94 WSW 7 11 29.76 1008 6 10 0.00 0.00
2:50 am 02:50 Partly Cloudy 52 11 50 10 94 94 WSW 5 7 29.79 1009 6 10 0.00 0.00
3:20 am 03:20 Partly Cloudy 52 11 50 10 94 94 W 8 13 29.79 1009 6 10 0.00 0.00
3:50 am 03:50 Mostly Cloudy 52 11 50 10 94 94 W 10 17 29.79 1009 6 10 0.00 0.00
4:20 am 04:20 Mostly Cloudy 52 11 50 10 94 94 WSW 9 15 29.79 1009 6 10 0.00 0.00
4:50 am 04:50 Mostly Cloudy 52 11 50 10 94 94 VRB 6 9 29.79 1009 6 10 0.00 0.00
5:20 am 05:20 Mostly Cloudy 52 11 50 10 94 94 VRB 5 7 29.79 1009 6 10 0.00 0.00
5:50 am 05:50 Partly Cloudy 52 11 50 10 94 94 VRB 8 13 29.79 1009 6 10 0.00 0.00
6:20 am 06:20 Partly Cloudy 52 11 48 9 87 87 VRB 6 9 29.79 1009 6 10 0.00 0.00
6:50 am 06:50 Partly Cloudy with Light Showers 52 11 50 10 94 94 W 8 13 29.82 1010 6 10 0.00 0.00
7:20 am 07:20 Mostly Cloudy with Light Showers 52 11 50 10 94 94 W 5 7 29.82 1010 6 10 0.00 0.00
7:50 am 07:50 Mostly Cloudy with Showers 52 11 50 10 94 94 NNW 6 9 29.82 1010 2 3 0.00 0.00
8:20 am 08:20 Mostly Cloudy 52 11 50 10 94 94 VRB 6 9 29.82 1010 6 10 0.00 0.00
8:50 am 08:50 Mostly Cloudy with Light Rain 52 11 50 10 94 94 VRB 2 4 29.85 1011 6 10 0.00 0.00
9:20 am 09:20 Mostly Cloudy with Light Rain 52 11 50 10 94 94 W 5 7 29.85 1011 4 7 0.00 0.00
9:50 am 09:50 Partly Cloudy with Showers Nearby 52 11 50 10 94 94 VRB 7 11 29.85 1011 6 10 0.00 0.00
10:20 am 10:20 Partly Cloudy with Showers Nearby 54 12 52 11 94 94 WSW 7 11 29.85 1011 6 10 0.00 0.00
10:50 am 10:50 Partly Cloudy with Showers Nearby 55 13 52 11 88 88 VRB 9 15 29.85 1011 6 10 0.00 0.00
11:20 am 11:20 Mostly Sunny 55 13 52 11 88 88 W 9 15 29.85 1011 6 10 0.00 0.00
11:50 am 11:50 Partly Cloudy 57 14 52 11 82 82 W 10 17 29.85 1011 6 10 0.00 0.00
12:20 pm 12:20 Partly Cloudy 57 14 52 11 82 82 W 12 19 29.85 1011 6 10 0.00 0.00
12:50 pm 12:50 Partly Cloudy 59 15 50 10 72 72 W 9 15 29.88 1012 6 10 0.00 0.00
1:20 pm 13:20 Mostly Cloudy 59 15 52 11 77 77 W 10 17 29.88 1012 6 10 0.00 0.00
1:50 pm 13:50 Partly Cloudy 59 15 52 11 77 77 W 10 17 29.88 1012 6 10 0.00 0.00
2:20 pm 14:20 Mostly Sunny 61 16 50 10 68 68 W 9 15 29.88 1012 6 10 0.00 0.00
2:50 pm 14:50 Partly Cloudy 63 17 50 10 63 63 WNW 12 19 29.88 1012 6 10 0.00 0.00
3:20 pm 15:20 Mostly Sunny 61 16 50 10 68 68 WNW 10 17 29.88 1012 6 10 0.00 0.00
3:50 pm 15:50 Mostly Cloudy 61 16 48 9 63 63 WNW 14 22 29.88 1012 6 10 0.00 0.00
4:20 pm 16:20 Mostly Sunny 59 15 50 10 72 72 WNW 7 11 29.91 1013 6 10 0.00 0.00
4:50 pm 16:50 Mostly Sunny 59 15 48 9 67 67 WNW 14 22 29.91 1013 6 10 0.00 0.00
5:20 pm 17:20 Mostly Sunny 59 15 48 9 67 67 WNW 14 22 29.91 1013 6 10 0.00 0.00
5:50 pm 17:50 Mostly Sunny 59 15 50 10 72 72 WNW 8 13 29.91 1013 6 10 0.00 0.00
6:20 pm 18:20 Mostly Sunny 59 15 48 9 67 67 WNW 9 15 29.94 1014 6 10 0.00 0.00
6:50 pm 18:50 Partly Cloudy with Light Showers 57 14 48 9 72 72 WNW 10 17 29.94 1014 6 10 0.00 0.00
7:20 pm 19:20 Partly Cloudy 55 13 48 9 77 77 WNW 8 13 29.97 1015 6 10 0.00 0.00
7:50 pm 19:50 Mostly Clear 55 13 48 9 77 77 WNW 7 11 29.97 1015 6 10 0.00 0.00
8:20 pm 20:20 Mostly Clear 55 13 50 10 82 82 WNW 8 13 30.00 1016 6 10 0.00 0.00
8:50 pm 20:50 Mostly Clear 54 12 50 10 88 88 W 8 13 30.00 1016 6 10 0.00 0.00
9:20 pm 21:20 Clear 54 12 48 9 82 82 W 7 11 30.00 1016 6 10 0.00 0.00
9:50 pm 21:50 Clear 54 12 48 9 82 82 WNW 9 15 30.03 1017 6 10 0.00 0.00
10:20 pm 22:20 Clear 54 12 50 10 88 88 W 8 13 30.03 1017 6 10 0.00 0.00
10:50 pm 22:50 Clear 52 11 48 9 87 87 W 8 13 30.03 1017 6 10 0.00 0.00
11:20 pm 23:20 Clear 52 11 48 9 87 87 W 7 11 30.03 1017 6 10 0.00 0.00
11:50 pm 23:50 Clear 52 11 50 10 94 94 W 8 13 30.06 1018 6 10 0.00 0.00

Powered by AerisWeather